Home   Weather   Trieste   Past weeks

Flag for Italy Past Weather in Trieste, Italy — Yesterday and Last 2 Weeks

Now
40 °F

Clear.


Feels Like: 40 °F
Forecast: 41 / 48 °F
Wind: 1 mph from Northeast

Location: Trieste

Current Time: Feb 21, 2017 at 1:59:33 am

Latest Report: Feb 21, 2017 at 1:00 am


Visibility: 13 mi

Pressure: 30.17 "Hg

Humidity: 81%

Dew Point: 35 °F

Location of TriesteLocation

Past Weather in Trieste — Graph

°F

Trieste Temperature Yesterday

Maximum temperature yesterday: 50 °F (at 3:00 pm)
Minimum temperature yesterday: 40 °F (at 1:00 am)
Average temperature yesterday: 44 °F

High & Low Weather Summary for the Past Weeks

 TemperatureHumidityPressure
High55 °F (Feb 14, 2:00 pm)100% (Feb 16, 9:00 pm)30.58 "Hg (Feb 16, 9:00 pm)
Low36 °F (Feb 15, 7:00 am)34% (Feb 14, 12:00 pm)29.47 "Hg (Feb 6, 4:00 am)
Average45 °F68%30.22 "Hg
* Reported Feb 6 12:00 am — Feb 21 12:00 am, Trieste, Weather by CustomWeather, © 2017

Note: Actual official high and low records may vary slightly from our data, if they occured in-between our weather recording intervals... More about our weather records

Advertising

Trieste Weather History for the Previous 24 Hours

Scroll right to see more
 ConditionsComfort  
Time TempWeatherWind HumidityBarometerVisibility
12:00 am
Tue, Feb 21
41 °FClear.1 mph75%30.18 "Hg12 mi
11:00 pm
Mon, Feb 20
41 °FClear.No wind81%30.19 "Hg12 mi
10:00 pm41 °FClear.2 mph77%30.19 "Hg12 mi
9:00 pm41 °FClear.2 mph77%30.20 "Hg6 mi
8:00 pm43 °FClear.2 mph76%30.21 "Hg6 mi
7:00 pm44 °FClear.2 mph75%30.21 "Hg6 mi
6:00 pm46 °FClear.No wind79%30.20 "Hg6 mi
5:00 pm50 °FSunny.No wind76%30.20 "Hg6 mi
4:00 pm50 °FSunny.No wind74%30.20 "Hg6 mi
3:00 pm50 °FSunny.No wind69%30.21 "Hg6 mi
2:00 pm50 °FSunny.No wind67%30.22 "Hg6 mi
1:00 pm49 °FSunny.No wind67%30.23 "Hg6 mi
12:00 pm48 °FPassing clouds.No wind74%30.24 "Hg6 mi
11:00 am48 °FPassing clouds.No wind74%30.24 "Hg6 mi
10:00 am48 °FScattered clouds.No wind73%30.24 "Hg6 mi
9:00 am45 °FScattered clouds.No wind80%30.24 "Hg6 mi
8:00 am42 °FPartly sunny.No wind86%30.22 "Hg6 mi
7:00 am40 °FScattered clouds.No wind87%30.22 "Hg6 mi
6:00 am41 °FOvercast.No wind87%30.21 "Hg12 mi
4:00 am40 °FOvercast.No wind89%30.22 "Hg12 mi
3:00 am41 °FOvercast.No wind87%30.22 "Hg12 mi
2:00 am41 °FOvercast.1 mph86%30.23 "Hg12 mi
1:00 am40 °FClear.No wind88%30.23 "Hg12 mi
Weather by CustomWeather, © 2017

See weather overviewHow to use our weather pages